Home   Weather   Makkah   Past weeks

Flag for Saudi Arabia Past Weather in Makkah, Saudi Arabia — Yesterday and Last 2 Weeks

Now
100 °F

Scattered clouds.


Feels Like: 100 °F
Forecast: 78 / 105 °F
Wind: 5 mph from Northwest

Location: Mecca Airport

Current Time: Apr 27, 2017 at 6:19:35 pm

Latest Report: Apr 27, 2017 at 5:00 pm


Visibility: N/A

Pressure: 29.77 "Hg

Humidity: 24%

Dew Point: 57 °F

Location of MakkahLocation

Past Weather in Makkah — Graph

°F

Makkah Temperature Yesterday

Maximum temperature yesterday: 104 °F (at 3:00 pm)
Minimum temperature yesterday: 82 °F (at 7:00 am)
Average temperature yesterday: 92 °F

High & Low Weather Summary for the Past Weeks

 TemperatureHumidityPressure
High109 °F (Apr 23, 1:00 pm)79% (Apr 15, 6:00 am)29.89 "Hg (Apr 15, 6:00 am)
Low77 °F (Apr 16, 2:00 am)19% (Apr 14, 4:00 pm)29.68 "Hg (Apr 13, 4:00 pm)
Average91 °F43%29.78 "Hg
* Reported Apr 12 5:00 pm — Apr 27 5:00 pm, Makkah, Weather by CustomWeather, © 2017

Note: Actual official high and low records may vary slightly from our data, if they occured in-between our weather recording intervals... More about our weather records

Advertising

Makkah Weather History for the Previous 24 Hours

Scroll right to see more
 ConditionsComfort  
Time TempWeatherWind HumidityBarometerVisibility
5:00 pm
Thu, Apr 27
100 °FScattered clouds.5 mph24%29.77 "HgN/A
4:00 pm104 °FScattered clouds.2 mph23%29.74 "HgN/A
3:00 pm104 °FScattered clouds.5 mph21%29.77 "HgN/A
2:00 pm104 °FPassing clouds.2 mph26%29.77 "HgN/A
1:00 pm102 °FSunny.2 mph27%29.80 "Hg10 mi
12:00 pm102 °FSunny.2 mph31%29.83 "Hg10 mi
11:00 am100 °FSunny.2 mph35%29.83 "Hg6 mi
10:00 am97 °FSunny.2 mph37%29.83 "Hg6 mi
9:00 am91 °FSunny.No wind44%29.83 "Hg6 mi
8:00 am88 °FSunny.No wind49%29.80 "Hg6 mi
7:00 am86 °FSunny.No wind49%29.80 "Hg6 mi
6:00 am86 °FPassing clouds.No wind46%29.77 "Hg6 mi
5:00 am86 °FPassing clouds.No wind46%29.77 "HgN/A
4:00 am88 °FPassing clouds.3 mph43%29.80 "HgN/A
3:00 am88 °FPassing clouds.No wind43%29.80 "HgN/A
2:00 am88 °FOvercast.No wind38%29.83 "HgN/A
1:10 am88 °FThunderstorms. Passing clouds.No wind38%29.86 "HgN/A
12:00 am88 °FPassing clouds.No wind40%29.83 "HgN/A
11:00 pm
Wed, Apr 26
90 °FClear.No wind43%29.83 "Hg10 mi
10:00 pm90 °FClear.No wind41%29.83 "Hg10 mi
9:00 pm90 °FClear.No wind43%29.80 "Hg10 mi
8:00 pm91 °FClear.2 mph41%29.80 "Hg10 mi
7:00 pm93 °FClear.3 mph44%29.77 "Hg10 mi
6:00 pm95 °FSunny.5 mph44%29.74 "Hg10 mi
Weather by CustomWeather, © 2017

See weather overviewHow to use our weather pages